TimeEDT,TemperatureF,Dew PointF,Humidity,Sea Level PressureIn,VisibilityMPH,Wind Direction,Wind SpeedMPH,Gust SpeedMPH,PrecipitationIn,Events,Conditions,WindDirDegrees,DateUTC
12:57 AM,39.0,28.0,65,30.07,10.0,Calm,Calm,-,N/A,,Clear,0,2013-03-23 04:57:00
1:57 AM,37.0,28.9,73,30.06,10.0,Calm,Calm,-,N/A,,Clear,0,2013-03-23 05:57:00
2:57 AM,41.0,30.9,67,30.06,10.0,Calm,Calm,-,N/A,,Overcast,0,2013-03-23 06:57:00
3:57 AM,42.1,33.1,70,30.04,10.0,WSW,3.5,-,N/A,,Overcast,240,2013-03-23 07:57:00
4:57 AM,39.9,32.0,73,30.04,10.0,Calm,Calm,-,N/A,,Overcast,0,2013-03-23 08:57:00
5:57 AM,37.0,30.9,79,30.04,10.0,Calm,Calm,-,N/A,,Scattered Clouds,0,2013-03-23 09:57:00
6:57 AM,35.1,30.0,82,30.06,10.0,Calm,Calm,-,N/A,,Clear,0,2013-03-23 10:57:00
7:57 AM,37.9,33.1,83,30.06,8.0,Calm,Calm,-,N/A,,Clear,0,2013-03-23 11:57:00
8:57 AM,48.0,28.9,48,30.06,10.0,West,4.6,-,N/A,,Clear,280,2013-03-23 12:57:00
9:57 AM,52.0,28.0,40,30.06,10.0,NW,4.6,-,N/A,,Clear,320,2013-03-23 13:57:00
10:57 AM,53.1,25.0,34,30.04,10.0,NW,4.6,-,N/A,,Clear,320,2013-03-23 14:57:00
11:57 AM,53.1,28.0,38,30.06,10.0,NW,4.6,-,N/A,,Mostly Cloudy,310,2013-03-23 15:57:00
12:57 PM,53.1,28.0,38,30.05,10.0,Calm,Calm,-,N/A,,Overcast,0,2013-03-23 16:57:00
1:57 PM,54.0,28.9,38,30.04,10.0,Calm,Calm,-,N/A,,Overcast,0,2013-03-23 17:57:00
2:57 PM,53.1,30.9,43,30.01,10.0,SW,5.8,-,N/A,,Overcast,220,2013-03-23 18:57:00
3:57 PM,54.0,33.1,45,29.99,10.0,SW,4.6,-,N/A,,Overcast,230,2013-03-23 19:57:00
4:57 PM,54.0,35.1,49,29.96,10.0,SSW,8.1,-,N/A,,Clear,200,2013-03-23 20:57:00
5:57 PM,53.1,33.1,47,29.94,10.0,South,5.8,-,N/A,,Clear,190,2013-03-23 21:57:00
6:57 PM,50.0,36.0,59,29.95,10.0,South,3.5,-,N/A,,Clear,170,2013-03-23 22:57:00
7:57 PM,48.0,37.0,66,29.96,10.0,Calm,Calm,-,N/A,,Clear,0,2013-03-23 23:57:00
8:57 PM,43.0,37.0,80,30.00,10.0,Calm,Calm,-,N/A,,Clear,0,2013-03-24 00:57:00
9:57 PM,42.1,36.0,79,30.01,10.0,Calm,Calm,-,N/A,,Clear,0,2013-03-24 01:57:00
10:57 PM,42.1,37.0,82,30.00,10.0,Calm,Calm,-,N/A,,Clear,0,2013-03-24 02:57:00
11:57 PM,42.1,36.0,79,29.96,10.0,Calm,Calm,-,N/A,,Clear,0,2013-03-24 03:57:00